GW3020 Weather Reports


Display with metric or nautical units.
time (UTC)temp
F
wind
direction
speed
MPH
gust
MPH
rain 1hr
in
rain 24hr
in
rain mn
in
humidity
%
barometer
mb
20260505114229 45 209 0.0 0.0 0.00 0.00 0.00 88 1014.6
20260505113726 45 200 0.0 1.0 0.00 0.00 0.00 88 1014.7
20260505113223 44 197 0.0 1.0 0.00 0.00 0.00 89 1014.6
20260505112719 44 202 0.0 1.0 0.00 0.00 0.00 90 1014.6
20260505112217 44 237 0.0 1.0 0.00 0.00 0.00 90 1014.9
20260505111717 43 237 0.0 0.0 0.00 0.00 0.00 91 1014.8
20260505111213 43 237 0.0 0.0 0.00 0.00 0.00 91 1014.7
20260505110709 43 237 0.0 0.0 0.00 0.00 0.00 91 1014.8
20260505110207 42 237 0.0 0.0 0.00 0.00 0.00 91 1014.7
20260505102142 43 245 0.0 0.0 0.00 0.00 0.00 89 1014.1
20260505101641 43 245 0.0 0.0 0.00 0.00 0.00 89 1014.3
20260505101137 43 245 0.0 0.0 0.00 0.00 0.00 89 1013.9
20260505100633 43 245 0.0 0.0 0.00 0.00 0.00 89 1013.9
20260505100130 43 244 0.0 0.0 0.00 0.00 0.00 88 1014.1
20260505095626 44 244 0.0 0.0 0.00 0.00 0.00 88 1014.1
20260505095123 44 244 0.0 0.0 0.00 0.00 0.00 88 1014.1
20260505094619 44 244 0.0 0.0 0.00 0.00 0.00 87 1013.9
20260505094116 44 244 0.0 0.0 0.00 0.00 0.00 87 1013.8
20260505093612 44 244 0.0 0.0 0.00 0.00 0.00 86 1013.8
20260505093109 44 244 0.0 0.0 0.00 0.00 0.00 86 1013.9
20260505092607 45 244 0.0 0.0 0.00 0.00 0.00 86 1013.9
20260505092106 45 244 0.0 0.0 0.00 0.00 0.00 85 1013.9
20260505091602 45 245 0.0 0.0 0.00 0.00 0.00 85 1014.1
20260505091100 45 245 0.0 0.0 0.00 0.00 0.00 85 1014.1
20260505090557 46 245 0.0 0.0 0.00 0.00 0.00 85 1014.2
20260505090056 46 245 0.0 0.0 0.00 0.00 0.00 85 1014.1
20260505085553 45 245 0.0 0.0 0.00 0.00 0.00 85 1014.1
20260505085051 45 244 0.0 0.0 0.00 0.00 0.00 85 1014.1
20260505084548 45 244 0.0 0.0 0.00 0.00 0.00 84 1014.2
20260505084046 45 244 0.0 1.0 0.00 0.00 0.00 84 1013.9
20260505083538 46 244 0.0 0.0 0.00 0.00 0.00 83 1014.2
20260505083035 46 244 0.0 0.0 0.00 0.00 0.00 82 1014.1
20260505082530 46 244 0.0 0.0 0.00 0.00 0.00 82 1013.9
20260505082027 46 254 0.0 0.0 0.00 0.00 0.00 82 1013.8
20260505081524 46 254 0.0 0.0 0.00 0.00 0.00 81 1013.9
20260505081021 46 253 0.0 0.0 0.00 0.00 0.00 81 1013.9
20260505080517 47 252 0.0 0.0 0.00 0.00 0.00 80 1013.9
20260505080014 47 253 0.0 0.0 0.00 0.00 0.00 80 1013.8
20260505075510 47 252 0.0 0.0 0.00 0.00 0.00 79 1013.6
20260505075007 48 252 0.0 0.0 0.00 0.00 0.00 78 1013.4
20260505074504 48 258 0.0 0.0 0.00 0.00 0.00 77 1013.5
20260505074001 48 258 0.0 0.0 0.00 0.00 0.00 77 1013.6
20260505073459 48 258 0.0 0.0 0.00 0.00 0.00 77 1013.4
20260505072956 49 258 0.0 0.0 0.00 0.00 0.00 76 1013.2
20260505072452 49 258 0.0 0.0 0.00 0.00 0.00 75 1013.3
20260505071948 49 258 0.0 0.0 0.00 0.00 0.00 74 1013.2
20260505071444 50 258 0.0 0.0 0.00 0.00 0.00 73 1013.2
20260505070943 50 258 0.0 0.0 0.00 0.00 0.00 73 1013.1
20260505070439 50 258 0.0 0.0 0.00 0.00 0.00 72 1013.0
20260505065935 50 258 0.0 0.0 0.00 0.00 0.00 72 1013.2
20260505065431 50 258 0.0 0.0 0.00 0.00 0.00 71 1012.9
20260505064928 51 258 0.0 0.0 0.00 0.00 0.00 70 1013.0
20260505064425 51 258 0.0 0.0 0.00 0.00 0.00 69 1012.9
20260505063924 52 258 0.0 0.0 0.00 0.00 0.00 68 1013.0
20260505063420 53 258 0.0 0.0 0.00 0.00 0.00 65 1013.1
20260505062916 55 259 0.0 0.0 0.00 0.00 0.00 63 1012.9
20260505062414 55 259 0.0 0.0 0.00 0.00 0.00 59 1013.0
20260505061910 56 259 0.0 0.0 0.00 0.00 0.00 58 1013.2
20260505061409 57 259 0.0 1.0 0.00 0.00 0.00 56 1013.2
20260505060906 57 259 0.0 1.0 0.00 0.00 0.00 56 1012.9
20260505060403 57 259 0.0 1.0 0.00 0.00 0.00 56 1012.9
20260505055858 57 259 1.0 1.0 0.00 0.00 0.00 56 1012.9
20260505055355 57 258 0.0 1.0 0.00 0.00 0.00 55 1013.0
20260505054851 57 258 0.0 1.0 0.00 0.00 0.00 54 1013.0
20260505054348 57 259 0.0 1.0 0.00 0.00 0.00 54 1013.1
20260505053847 58 262 0.0 1.0 0.00 0.00 0.00 54 1012.9
20260505053343 57 262 1.0 2.0 0.00 0.00 0.00 54 1012.9
20260505052840 57 260 0.0 0.0 0.00 0.00 0.00 55 1013.1
20260505052331 57 260 0.0 0.0 0.00 0.00 0.00 55 1013.1
20260505051828 57 260 0.0 0.0 0.00 0.00 0.00 56 1013.0
20260505051326 57 261 0.0 0.0 0.00 0.00 0.00 54 1012.9
20260505050824 57 243 0.0 0.0 0.00 0.00 0.00 55 1012.7
20260505050323 56 239 0.0 4.0 0.00 0.00 0.00 54 1013.0
20260505041746 60 230 0.0 0.0 0.00 0.00 0.00 49 1012.7
20260505041243 60 231 0.0 1.0 0.00 0.00 0.00 48 1012.6
20260505040741 60 237 0.0 1.0 0.00 0.00 0.00 49 1012.8
20260505040238 61 239 1.0 2.0 0.00 0.00 0.00 48 1012.7
20260505035735 60 246 1.0 2.0 0.00 0.00 0.00 48 1012.9
20260505035230 61 234 1.0 1.0 0.00 0.00 0.00 48 1012.8
20260505034728 61 228 0.0 2.0 0.00 0.00 0.00 47 1012.9
20260505034225 61 236 2.0 3.0 0.00 0.00 0.00 48 1013.0
20260505033721 61 241 2.0 2.0 0.00 0.00 0.00 48 1013.0
20260505033219 61 245 2.0 3.0 0.00 0.00 0.00 49 1013.2
20260505032716 61 249 2.0 3.0 0.00 0.00 0.00 49 1012.9
20260505032207 61 265 2.0 2.0 0.00 0.00 0.00 49 1013.2
20260505031704 61 244 0.0 3.0 0.00 0.00 0.00 50 1013.1
20260505031201 61 226 0.0 1.0 0.00 0.00 0.00 50 1013.2
20260505030657 61 230 1.0 2.0 0.00 0.00 0.00 50 1013.3
20260505030153 60 233 0.0 1.0 0.00 0.00 0.00 52 1013.3
20260505025649 61 234 1.0 1.0 0.00 0.00 0.00 51 1013.2
20260505025148 61 226 0.0 0.0 0.00 0.00 0.00 52 1013.3
20260505024645 61 238 0.0 1.0 0.00 0.00 0.00 51 1013.2
20260505024142 60 262 1.0 3.0 0.00 0.00 0.00 53 1013.2
20260505023640 60 243 0.0 1.0 0.00 0.00 0.00 55 1013.4
20260505023137 60 243 0.0 0.0 0.00 0.00 0.00 54 1013.3
20260505022634 60 244 0.0 0.0 0.00 0.00 0.00 53 1013.2
20260505022131 61 242 0.0 0.0 0.00 0.00 0.00 53 1013.2
20260505021628 61 240 0.0 0.0 0.00 0.00 0.00 53 1013.3
20260505021125 62 238 0.0 0.0 0.00 0.00 0.00 52 1013.3
20260505020620 62 238 0.0 1.0 0.00 0.00 0.00 51 1013.4
20260505020116 63 240 1.0 1.0 0.00 0.00 0.00 50 1013.3
20260505015614 63 235 0.0 1.0 0.00 0.00 0.00 50 1013.4
20260505015110 63 226 1.0 1.0 0.00 0.00 0.00 50 1013.3
20260505014607 63 248 1.0 2.0 0.00 0.00 0.00 50 1013.3
20260505014104 63 236 1.0 2.0 0.00 0.00 0.00 51 1013.3
20260505013601 63 250 1.0 1.0 0.00 0.00 0.00 52 1013.1
20260505013059 63 243 1.0 2.0 0.00 0.00 0.00 52 1013.2
20260505012556 63 228 1.0 4.0 0.00 0.00 0.00 51 1013.2
20260505012053 62 259 4.0 4.0 0.00 0.00 0.00 55 1013.1
20260505011549 62 248 0.0 1.0 0.00 0.00 0.00 56 1013.2
20260505011047 61 248 0.0 1.0 0.00 0.00 0.00 58 1013.1
20260505010542 61 249 0.0 1.0 0.00 0.00 0.00 59 1013.1
20260505010039 61 229 0.0 0.0 0.00 0.00 0.00 59 1012.9
20260505005535 61 229 0.0 0.0 0.00 0.00 0.00 60 1012.9
20260505005033 61 226 0.0 0.0 0.00 0.00 0.00 61 1012.8
20260505004529 61 225 0.0 1.0 0.00 0.00 0.00 61 1012.6
20260505004026 62 226 0.0 0.0 0.00 0.00 0.00 61 1012.7
20260505003523 62 226 0.0 0.0 0.00 0.00 0.00 59 1012.6
20260505003020 63 225 0.0 0.0 0.00 0.00 0.00 58 1012.3
20260505002515 64 255 0.0 1.0 0.00 0.00 0.00 57 1012.3
20260505002014 64 236 0.0 1.0 0.00 0.00 0.00 56 1012.4
20260505001511 65 235 0.0 0.0 0.00 0.00 0.00 54 1012.4
20260505001008 66 235 0.0 1.0 0.00 0.00 0.00 53 1012.3
20260505000505 66 219 0.0 0.0 0.00 0.00 0.00 51 1012.2
20260505000002 66 224 0.0 1.0 0.00 0.00 0.00 51 1012.6
20260504235459 67 213 0.0 1.0 0.00 0.00 0.00 50 1012.1
20260504234956 68 213 1.0 1.0 0.00 0.00 0.00 49 1012.0
20260504234453 68 226 1.0 1.0 0.00 0.00 0.00 48 1012.3
20260504233949 69 222 0.0 1.0 0.00 0.00 0.00 46 1012.2
20260504233445 70 232 1.0 1.0 0.00 0.00 0.00 45 1012.2
20260504232942 70 231 2.0 2.0 0.00 0.00 0.00 44 1012.2
20260504232439 70 204 1.0 2.0 0.00 0.00 0.00 44 1012.0
20260504231937 72 215 1.0 1.0 0.00 0.00 0.00 43 1012.0
20260504231433 72 233 0.0 3.0 0.00 0.00 0.00 42 1012.0
20260504230929 72 230 1.0 3.0 0.00 0.00 0.00 42 1012.2
20260504230426 71 262 4.0 6.0 0.00 0.00 0.00 42 1011.9
20260504225925 72 257 1.0 6.0 0.00 0.00 0.00 42 1011.9
20260504225421 71 249 2.0 6.0 0.00 0.00 0.00 43 1011.9
20260504224919 71 311 3.0 6.0 0.00 0.00 0.00 42 1012.1
20260504224415 72 221 4.0 6.0 0.00 0.00 0.00 41 1012.2
20260504223913 72 284 3.0 6.0 0.00 0.00 0.00 41 1012.1
20260504223408 72 244 0.0 3.0 0.00 0.00 0.00 42 1012.1
20260504222904 72 277 2.0 7.0 0.00 0.00 0.00 42 1012.0
20260504222401 72 238 2.0 7.0 0.00 0.00 0.00 42 1012.2
20260504221900 72 246 3.0 4.0 0.00 0.00 0.00 43 1012.1
20260504221356 71 230 2.0 7.0 0.00 0.00 0.00 42 1012.3
20260504220853 72 309 7.0 9.0 0.00 0.00 0.00 42 1012.4
20260504220350 72 272 5.0 11.0 0.00 0.00 0.00 42 1012.3
20260504215847 72 253 5.0 8.0 0.00 0.00 0.00 43 1012.3
20260504215343 71 252 3.0 7.0 0.00 0.00 0.00 43 1012.3
20260504214839 71 259 5.0 8.0 0.00 0.00 0.00 43 1012.4
20260504214337 72 263 4.0 9.0 0.00 0.00 0.00 43 1012.3
20260504213833 71 264 3.0 8.0 0.00 0.00 0.00 43 1012.4
20260504213329 71 241 5.0 11.0 0.00 0.00 0.00 44 1012.4
20260504212827 71 272 6.0 10.0 0.00 0.00 0.00 44 1012.6
20260504212322 72 256 5.0 9.0 0.00 0.00 0.00 45 1012.4
20260504211821 72 242 5.0 11.0 0.00 0.00 0.00 45 1012.6
20260504211316 72 247 4.0 7.0 0.00 0.00 0.00 44 1012.8
20260504210814 71 271 2.0 4.0 0.00 0.00 0.00 44 1012.7
20260504210311 71 221 2.0 7.0 0.00 0.00 0.00 45 1012.6
20260504205808 71 263 3.0 9.0 0.00 0.00 0.00 46 1012.6
20260504205306 72 243 6.0 8.0 0.00 0.00 0.00 44 1012.6
20260504204804 71 204 3.0 11.0 0.00 0.00 0.00 46 1012.4
20260504204302 72 226 5.0 11.0 0.00 0.00 0.00 45 1012.6
20260504203801 72 181 4.0 9.0 0.00 0.00 0.00 46 1012.6
20260504203258 71 207 1.0 8.0 0.00 0.00 0.00 46 1012.6
20260504202753 71 283 6.0 8.0 0.00 0.00 0.00 45 1012.8
20260504202250 71 261 3.0 10.0 0.00 0.00 0.00 46 1012.8
20260504201747 71 249 2.0 9.0 0.00 0.00 0.00 45 1012.7
20260504201244 72 236 3.0 3.0 0.00 0.00 0.00 44 1012.8
20260504200742 71 188 2.0 6.0 0.00 0.00 0.00 46 1012.8
20260504200237 70 277 4.0 7.0 0.00 0.00 0.00 47 1012.9
20260504195734 71 246 4.0 13.0 0.00 0.00 0.00 44 1013.0
20260504195230 69 206 2.0 3.0 0.00 0.00 0.00 47 1013.1
20260504194727 70 268 4.0 9.0 0.00 0.00 0.00 47 1013.1
20260504194223 69 277 5.0 10.0 0.00 0.00 0.00 48 1013.1
20260504193720 69 198 4.0 13.0 0.00 0.00 0.00 47 1013.2
20260504193218 68 264 5.0 9.0 0.00 0.00 0.00 48 1013.1
20260504192716 68 278 3.0 11.0 0.00 0.00 0.00 49 1013.6
20260504192213 68 311 4.0 8.0 0.00 0.00 0.00 49 1013.4
20260504191712 68 199 2.0 8.0 0.00 0.00 0.00 50 1013.4
20260504191208 68 223 3.0 7.0 0.00 0.00 0.00 50 1013.6
20260504190703 67 238 4.0 11.0 0.00 0.00 0.00 50 1013.7
20260504190200 67 268 5.0 10.0 0.00 0.00 0.00 50 1013.6
20260504185657 68 229 2.0 8.0 0.00 0.00 0.00 49 1013.8
20260504185153 67 151 1.0 4.0 0.00 0.00 0.00 49 1013.9
20260504184649 67 181 3.0 9.0 0.00 0.00 0.00 49 1013.7
20260504184144 67 276 9.0 11.0 0.00 0.00 0.00 49 1013.7
20260504183642 66 224 2.0 9.0 0.00 0.00 0.00 51 1014.1
20260504183139 66 243 2.0 7.0 0.00 0.00 0.00 50 1013.9
20260504182637 66 281 6.0 11.0 0.00 0.00 0.00 50 1014.2
20260504182134 66 154 3.0 10.0 0.00 0.00 0.00 50 1014.3
20260504181632 67 225 4.0 8.0 0.00 0.00 0.00 50 1014.3
20260504181129 67 229 3.0 7.0 0.00 0.00 0.00 50 1014.2
20260504180628 67 211 4.0 7.0 0.00 0.00 0.00 50 1014.3
20260504180126 65 240 3.0 7.0 0.00 0.00 0.00 52 1014.4
20260504175623 66 256 6.0 10.0 0.00 0.00 0.00 52 1014.4
20260504175120 65 235 3.0 4.0 0.00 0.00 0.00 52 1014.5
20260504174618 64 273 5.0 15.0 0.00 0.00 0.00 53 1014.7
20260504174114 65 253 4.0 6.0 0.00 0.00 0.00 53 1014.7
20260504173611 64 234 2.0 4.0 0.00 0.00 0.00 54 1014.6
20260504173109 64 325 3.0 7.0 0.00 0.00 0.00 54 1014.7
20260504172605 64 238 3.0 4.0 0.00 0.00 0.00 54 1014.9
20260504172102 65 245 3.0 6.0 0.00 0.00 0.00 52 1014.9
20260504171558 65 195 3.0 6.0 0.00 0.00 0.00 55 1014.8
20260504171055 65 201 4.0 11.0 0.00 0.00 0.00 54 1014.9
20260504170551 64 248 2.0 9.0 0.00 0.00 0.00 54 1014.9
20260504150930 55 248 3.0 13.0 0.00 0.00 0.00 63 1015.9
20260504150427 55 246 6.0 11.0 0.00 0.00 0.00 63 1016.1
20260504140853 55 254 2.0 13.0 0.00 0.00 0.00 57 1016.8
20260504140349 54 275 6.0 13.0 0.00 0.00 0.00 58 1016.6
20260504130817 52 240 2.0 7.0 0.00 0.00 0.00 59 1016.4
20260504130313 52 214 3.0 4.0 0.00 0.00 0.00 60 1016.3
20260504120237 47 243 1.0 2.0 0.00 0.00 0.00 62 1015.7